sat.trackr.live / text

‹ back to catalog

STARLINK-36360

NORAD 68402 · 2026-063Y

PAYLOAD ACTIVE UNKNOWN

§ Identity

Operator
Country
US
Launch date
2026-03-26
Launch site
AFWTR
Launch vehicle
Mass (kg)
RCS (m²)

Purposes: comms

External: N2YO · Heavens-Above · Gunter

§ Orbital elements

Epoch: 2026-09-18T15:13:32.219616Z

Period
93.91 min
Inclination
97.2834°
Eccentricity
0.0001019
Mean motion
15.33418457 rev/d
Perigee alt
464.9 km
Apogee alt
466.3 km
Semi-major
6,843.8 km
B*
7.2922e-4
RAAN
42.5375°
Arg perigee
87.3824°
Mean anomaly
272.7536°
Rev number
2,746

§ Raw data

STARLINK-363601 68402U 26063Y   26261.63440069  .00023520  00000+0  72922-3 0  99922 68402  97.2834  42.5375 0001019  87.3824 272.7536 15.33418457 27466

JSON: /api/v1/satellites/68402 · /tle

For live sub-satellite position, see the globe view (requires WebGL).

§ Visibility from observer

Set your observer location to see the next 7 days of passes ≥ 10°. The values pass through the URL so the page stays shareable.

No JS? Fill the form by hand. The geolocation button needs JavaScript.